Wind_Speed
28 26 24 24 24 24 24 24 25 24 26 25 26 26 24 24 25 25 24 22 22 22 21 21 21 21 21 20 20 20 20 20 21 21 21 21 21 21 21 21 20 20 20 21
29 28 27 27 27 26 25 25 27 27 29 28 28 29 27 26 27 26 26 25 24 24 23 23 24 24 23 22 22 22 23 22 22 23 22 22 22 23 23 23 23 23 22 22
30 29 30 30 29 27 27 27 27 28 30 31 31 33 33 30 29 29 27 26 25 26 26 25 26 25 25 25 25 25 25 25 24 25 24 24 24 25 25 25 26 25 25 24
30 30 32 31 30 29 28 29 29 31 32 33 34 35 35 34 31 30 29 28 27 28 29 27 27 28 28 28 28 27 27 27 27 26 27 27 27 27 27 26 26 27 27 26
30 31 31 31 30 30 31 32 30 31 33 34 35 36 35 34 32 32 31 30 29 29 30 30 30 30 30 30 29 29 29 29 29 29 29 28 28 28 28 28 29 29 28 28
30 30 30 31 31 30 31 33 31 32 33 34 35 36 36 34 33 33 33 32 30 30 31 31 32 32 31 31 30 30 30 30 30 30 30 31 30 30 30 30 31 31 30 30
31 31 33 32 33 31 32 34 33 34 35 35 36 38 37 36 36 34 34 33 32 33 33 33 33 33 33 32 31 31 31 30 30 31 31 31 31 31 32 32 32 32 32 31
30 32 34 34 34 34 35 36 36 36 36 37 37 37 38 36 36 34 34 34 34 34 34 34 34 34 33 32 31 31 31 31 31 31 32 33 33 33 33 34 34 34 33 33
31 33 33 34 36 37 37 37 37 37 37 37 37 38 38 38 37 35 35 34 34 35 35 35 35 34 34 33 33 33 33 33 33 33 33 34 34 34 35 35 35 34 34 34
33 34 35 35 36 37 38 37 37 38 38 37 37 38 38 39 38 37 37 36 36 35 35 35 36 36 35 34 34 34 34 35 35 35 34 35 35 35 35 35 35 34 35 35
35 35 36 36 35 36 36 36 36 36 37 38 38 38 38 38 37 37 37 37 37 37 37 37 36 36 35 35 35 35 35 35 35 35 34 34 35 35 35 36 36 35 35 35
35 35 36 37 37 37 37 38 37 37 38 38 38 39 39 39 37 36 36 37 37 36 37 36 36 36 36 36 36 36 36 35 35 35 35 35 35 35 34 35 35 35 35 35
34 34 35 35 35 35 36 38 38 38 39 39 38 39 40 38 37 37 37 37 37 37 36 35 35 36 36 36 36 36 35 35 35 36 36 36 35 35 35 34 34 34 35 35
33 33 34 34 35 35 36 36 37 37 38 38 38 39 39 39 37 36 36 36 37 36 35 34 34 35 35 36 36 35 35 35 35 36 36 35 34 34 34 34 34 34 35 35
33 33 33 34 35 35 36 36 35 36 36 37 37 36 36 36 36 36 36 35 35 34 34 33 33 34 34 34 34 34 34 35 35 34 34 34 33 33 32 33 34 34 34 35
31 31 32 32 33 34 34 35 35 35 35 35 35 34 34 35 34 35 34 34 33 33 33 33 33 34 33 33 33 33 33 33 33 33 33 33 33 34 33 33 34 33 33 33
28 29 31 32 32 32 32 33 33 33 33 32 32 32 32 32 32 32 32 32 32 32 32 32 32 33 32 32 32 32 32 32 32 32 32 33 32 32 32 32 32 32 32 31
25 27 28 29 29 29 29 29 29 30 30 30 31 32 32 31 31 30 29 29 29 30 31 31 31 30 30 30 30 30 31 31 31 32 32 32 32 32 32 32 32 32 32 32
23 24 25 25 25 25 26 26 26 26 27 27 28 28 28 28 28 27 26 26 27 29 28 29 29 29 29 29 29 29 30 30 31 31 31 31 31 31 31 31 31 31 32 33
20 20 20 21 22 22 23 24 25 25 25 25 25 25 26 26 26 26 25 25 25 25 26 26 26 27 28 28 29 29 28 28 29 30 30 30 30 30 30 30 30 31 32 32
18 18 19 20 21 21 22 23 23 23 23 23 23 23 24 24 24 24 23 23 23 22 23 24 25 25 26 26 27 27 27 27 28 29 29 30 30 30 30 30 31 31 32 33
18 18 19 19 20 20 20 20 20 20 20 20 20 20 21 21 22 22 22 22 22 22 22 22 23 23 24 25 25 26 26 27 27 27 27 28 29 29 29 30 31 31 32 32
17 17 17 16 16 16 17 17 17 18 18 17 17 18 19 20 20 20 20 21 22 23 22 22 22 23 24 24 24 25 25 26 27 27 27 27 28 28 28 29 29 29 30 30
15 15 15 15 15 15 14 15 16 16 16 15 16 16 17 17 18 18 19 19 20 21 21 21 21 21 21 21 22 22 23 24 25 25 26 26 26 26 27 27 28 29 29 29
14 14 13 13 12 11 12 13 13 14 14 14 15 15 16 17 16 16 17 17 18 19 18 19 19 20 20 21 22 23 23 24 24 24 24 24 24 25 25 25 26 26 26 26
12 12 11 10 9 9 9 9 10 11 12 12 13 14 14 14 14 15 16 16 17 18 18 18 18 18 19 20 21 22 22 22 23 23 24 24 25 25 25 25 25 25 25 25
12 11 10 9 9 8 8 8 9 9 11 12 13 13 12 13 13 14 15 16 17 18 18 18 18 18 18 18 19 19 20 21 22 23 23 23 23 23 23 24 24 24 24 25
Wind_Direction
238 237 236 239 240 242 243 241 243 248 253 256 259 263 263 265 265 266 269 270 270 271 272 272 273 275 278 279 280 282 283 285 287 289 290 290 291 293 295 296 298 297 297 296
242 243 243 241 242 244 245 245 243 246 252 253 257 260 258 262 265 266 268 269 269 269 271 271 272 273 277 278 279 281 281 283 285 287 288 288 289 292 295 295 296 296 296 296
245 246 246 243 241 242 243 246 247 248 251 254 256 259 261 261 262 266 268 270 270 269 270 271 270 272 275 276 277 278 280 281 284 286 286 287 288 289 292 293 293 295 293 293
249 249 249 247 246 245 247 247 247 249 252 254 256 259 262 264 264 265 268 270 270 270 270 270 270 270 273 274 275 277 279 282 284 285 286 287 286 286 288 290 292 293 292 292
250 251 253 251 248 247 248 248 248 250 253 256 257 258 260 262 263 266 268 270 270 269 270 270 271 271 272 272 273 274 276 278 280 282 283 284 284 284 285 287 290 291 292 292
250 250 252 254 252 248 250 253 251 250 252 254 256 257 259 260 263 266 269 269 269 269 270 271 272 272 271 272 272 273 274 275 277 279 280 281 282 283 284 286 288 289 289 290
251 252 252 252 254 251 249 250 251 252 255 255 255 257 258 260 262 264 266 267 268 269 270 271 272 272 270 270 271 272 273 274 275 277 278 279 281 283 284 286 287 289 289 288
252 252 253 253 253 252 251 252 255 257 260 260 259 258 258 259 261 264 265 266 267 270 270 271 272 272 270 269 269 271 273 274 275 276 278 279 280 283 284 285 287 288 288 287
251 251 254 256 255 255 255 256 257 258 260 261 260 257 258 259 260 262 265 267 268 269 270 270 271 271 270 269 269 270 271 273 274 275 276 278 281 282 284 285 286 286 287 287
253 252 253 256 258 259 259 259 259 260 260 261 261 259 258 259 261 262 263 266 267 268 269 269 269 269 269 267 267 269 270 271 273 274 277 278 280 282 283 284 285 285 285 287
256 256 256 258 260 260 260 260 260 260 260 260 260 259 259 259 260 262 263 265 267 268 268 268 268 267 266 266 266 268 270 271 272 274 276 278 280 281 282 283 284 284 284 286
258 259 259 260 260 261 259 258 259 260 260 260 258 258 258 258 259 262 263 264 266 267 268 268 266 265 266 266 266 268 269 271 272 274 276 277 279 280 281 282 282 283 284 285
261 261 262 262 261 261 261 261 259 258 259 260 259 257 257 258 260 261 262 264 266 267 267 267 266 265 265 266 266 268 270 271 274 275 276 278 280 281 282 283 282 283 284 285
263 263 262 261 260 260 262 263 260 259 259 260 260 259 258 257 259 261 262 263 265 266 266 266 265 265 265 265 266 268 270 272 273 275 277 279 281 281 282 284 284 284 284 286
262 261 262 262 261 262 264 264 262 260 259 259 260 260 259 257 257 259 261 262 264 265 265 266 266 266 266 266 267 268 270 272 273 275 277 279 280 281 282 283 285 286 286 287
263 261 261 262 263 265 264 264 262 259 258 259 260 261 260 260 260 259 260 262 262 264 265 266 266 266 267 266 267 268 270 272 274 275 276 279 280 281 283 284 286 288 288 289
265 264 264 265 266 265 263 262 262 259 259 259 259 259 259 260 260 258 260 260 259 260 263 266 268 268 267 267 267 268 270 272 273 274 276 278 279 280 283 284 285 288 289 289
269 269 269 269 268 266 263 261 261 260 258 258 257 256 256 257 258 260 260 258 259 262 263 265 265 266 266 267 269 269 271 271 272 274 276 279 279 280 283 284 284 286 287 288
273 273 272 270 267 266 263 259 257 257 256 255 256 255 255 256 256 256 258 261 262 262 262 263 264 265 267 268 270 271 271 271 272 274 276 278 279 280 280 281 283 285 286 288
276 275 274 273 271 266 262 258 256 255 255 256 256 256 255 254 254 255 256 260 263 264 262 262 264 266 268 269 270 272 272 272 273 273 274 276 277 278 279 281 284 285 288 291
275 276 276 276 275 269 262 258 254 254 255 256 257 257 255 253 252 254 258 261 263 264 264 265 266 267 268 269 271 272 272 273 274 276 277 277 278 278 279 282 284 286 288 290
277 276 277 276 274 269 263 257 255 255 256 255 256 257 254 253 252 255 258 261 263 264 264 265 265 266 267 269 270 271 273 275 277 279 279 280 280 280 281 282 285 286 288 290
277 276 276 276 275 269 259 258 259 259 257 256 257 256 254 253 253 256 260 261 262 263 265 266 265 266 270 272 270 271 274 276 278 280 282 283 284 284 283 284 286 288 290 291
275 276 276 274 273 272 261 257 259 257 255 253 255 256 257 257 256 257 260 263 263 263 266 268 270 271 273 274 272 272 274 277 279 281 282 283 284 285 285 285 286 287 289 291
273 274 273 272 270 268 264 260 256 253 251 250 251 254 257 258 258 259 259 260 263 267 270 270 271 273 276 277 276 276 277 279 281 283 284 283 284 284 284 285 287 288 290 291
273 275 275 272 267 267 264 260 255 254 254 254 259 261 261 261 260 260 261 263 267 269 269 272 274 277 279 281 282 281 280 280 282 283 283 283 283 283 283 285 287 288 288 290
269 271 273 270 269 269 268 266 267 267 266 267 269 266 266 267 266 265 265 267 270 273 275 276 277 278 279 281 282 284 285 286 285 285 285 285 284 284 286 287 289 290 291 294
Height
5860 5863 5866 5867 5869 5872 5874 5876 5879 5880 5879 5880 5879 5878 5878 5879 5880 5880 5881 5882 5882 5882 5882 5882 5882 5882 5882 5882 5882 5882 5882 5882 5882 5881 5880 5879 5879 5878 5877 5876 5875 5874 5873 5872
5852 5856 5858 5860 5863 5865 5868 5870 5871 5873 5872 5873 5874 5872 5871 5872 5873 5873 5874 5875 5876 5877 5877 5877 5877 5877 5877 5877 5877 5877 5877 5876 5876 5876 5875 5874 5874 5873 5872 5871 5870 5869 5868 5867
5845 5849 5850 5853 5856 5858 5860 5862 5864 5865 5866 5866 5866 5865 5864 5864 5866 5867 5867 5869 5870 5870 5870 5871 5871 5871 5872 5872 5871 5871 5871 5870 5870 5870 5869 5869 5868 5867 5867 5866 5864 5863 5862 5861
5838 5841 5842 5847 5848 5850 5852 5854 5856 5856 5857 5857 5858 5858 5858 5858 5858 5860 5861 5862 5863 5863 5863 5864 5864 5864 5865 5865 5865 5864 5864 5864 5863 5863 5863 5862 5862 5861 5860 5859 5858 5857 5855 5854
5830 5832 5834 5837 5839 5841 5843 5844 5846 5847 5848 5849 5848 5849 5849 5849 5850 5852 5854 5855 5855 5856 5856 5857 5857 5857 5858 5857 5857 5857 5857 5857 5856 5856 5856 5855 5855 5854 5853 5852 5851 5850 5848 5847
5821 5824 5826 5829 5830 5832 5835 5834 5837 5837 5838 5839 5839 5839 5840 5841 5843 5844 5846 5847 5847 5848 5848 5849 5849 5849 5849 5849 5849 5849 5849 5849 5848 5848 5848 5847 5847 5846 5845 5844 5843 5842 5840 5839
5813 5815 5816 5819 5820 5823 5826 5826 5827 5827 5828 5828 5829 5830 5832 5833 5834 5836 5837 5838 5839 5839 5840 5840 5841 5841 5840 5840 5841 5841 5840 5840 5840 5840 5839 5839 5838 5837 5836 5835 5834 5833 5832 5830
5805 5806 5809 5809 5811 5813 5813 5815 5817 5817 5818 5819 5820 5821 5822 5823 5824 5826 5827 5829 5830 5830 5830 5831 5831 5831 5831 5831 5832 5832 5832 5832 5831 5831 5831 5830 5829 5828 5827 5826 5825 5824 5823 5821
5796 5799 5799 5799 5800 5802 5803 5805 5806 5807 5809 5810 5810 5811 5813 5814 5815 5817 5818 5819 5820 5820 5821 5821 5821 5821 5821 5822 5822 5823 5823 5822 5822 5822 5821 5821 5820 5819 5818 5817 5815 5814 5813 5812
5786 5787 5789 5789 5790 5792 5793 5795 5796 5797 5798 5799 5800 5801 5802 5804 5805 5807 5808 5809 5810 5810 5811 5811 5811 5811 5811 5812 5812 5813 5813 5812 5812 5812 5812 5811 5810 5810 5808 5807 5805 5804 5803 5802
5777 5778 5779 5780 5781 5782 5783 5784 5786 5787 5787 5788 5789 5790 5792 5794 5795 5797 5798 5799 5799 5799 5799 5800 5800 5800 5801 5802 5802 5802 5802 5802 5802 5802 5802 5801 5801 5800 5798 5797 5795 5794 5793 5791
5767 5768 5769 5771 5771 5772 5773 5774 5775 5776 5776 5777 5779 5780 5781 5783 5785 5786 5787 5788 5788 5788 5788 5789 5789 5790 5790 5791 5791 5791 5792 5792 5792 5791 5791 5790 5790 5789 5787 5786 5785 5783 5782 5781
5758 5759 5759 5760 5761 5761 5762 5763 5764 5765 5765 5767 5767 5769 5769 5771 5773 5775 5776 5777 5778 5778 5778 5778 5779 5779 5780 5780 5781 5781 5782 5782 5781 5781 5780 5780 5779 5778 5777 5776 5775 5773 5772 5770
5749 5749 5749 5750 5751 5752 5752 5752 5753 5754 5755 5756 5757 5758 5759 5761 5763 5764 5766 5766 5767 5767 5768 5768 5768 5769 5769 5770 5770 5771 5771 5771 5771 5771 5770 5769 5769 5768 5767 5766 5765 5764 5762 5760
5740 5740 5739 5740 5740 5741 5741 5741 5742 5743 5744 5745 5746 5748 5750 5751 5752 5753 5755 5756 5756 5757 5757 5758 5758 5759 5759 5760 5760 5761 5761 5761 5761 5761 5760 5760 5759 5759 5757 5756 5755 5754 5752 5750
5730 5730 5730 5730 5730 5729 5730 5731 5731 5733 5734 5734 5736 5738 5740 5741 5741 5743 5744 5745 5746 5747 5748 5748 5749 5749 5750 5750 5750 5751 5751 5751 5751 5751 5751 5750 5750 5749 5748 5747 5746 5744 5743 5741
5721 5721 5721 5721 5720 5719 5719 5720 5721 5722 5724 5725 5727 5728 5730 5731 5732 5733 5735 5736 5737 5738 5739 5739 5740 5740 5740 5740 5741 5741 5742 5742 5742 5742 5742 5741 5741 5740 5739 5738 5737 5735 5734 5731
5713 5713 5712 5711 5711 5711 5710 5710 5711 5713 5714 5716 5717 5719 5721 5722 5724 5725 5726 5727 5728 5729 5730 5730 5730 5731 5731 5732 5732 5732 5733 5733 5733 5733 5733 5732 5732 5731 5730 5729 5728 5726 5724 5723
5706 5705 5704 5703 5703 5702 5702 5702 5703 5704 5705 5707 5708 5710 5712 5714 5715 5717 5718 5719 5720 5721 5722 5722 5722 5723 5723 5723 5724 5724 5725 5725 5725 5725 5724 5723 5723 5722 5721 5720 5718 5717 5715 5713
5700 5699 5698 5697 5696 5695 5694 5694 5695 5697 5698 5699 5701 5702 5704 5706 5707 5709 5711 5712 5713 5713 5714 5714 5715 5715 5715 5715 5716 5716 5716 5716 5716 5716 5715 5715 5714 5713 5712 5711 5710 5708 5706 5704
5695 5693 5692 5691 5690 5688 5688 5688 5688 5690 5691 5693 5694 5695 5696 5698 5701 5702 5704 5705 5706 5707 5707 5707 5708 5708 5708 5708 5708 5708 5708 5708 5708 5708 5707 5707 5706 5705 5704 5703 5701 5700 5698 5696
5689 5688 5686 5684 5683 5683 5682 5682 5682 5684 5685 5687 5687 5688 5690 5692 5694 5696 5697 5698 5699 5700 5700 5701 5701 5701 5701 5700 5701 5701 5701 5701 5701 5700 5699 5698 5697 5696 5695 5694 5693 5691 5689 5687
5684 5683 5681 5680 5679 5678 5678 5678 5678 5679 5680 5681 5682 5683 5685 5686 5688 5690 5691 5692 5693 5694 5694 5694 5695 5695 5694 5693 5694 5694 5694 5694 5693 5692 5691 5690 5689 5688 5687 5685 5684 5683 5681 5679
5679 5678 5677 5676 5675 5674 5673 5673 5675 5676 5676 5677 5678 5680 5681 5682 5683 5684 5686 5686 5687 5688 5689 5689 5688 5688 5688 5687 5687 5687 5686 5686 5685 5684 5683 5682 5681 5680 5679 5677 5676 5674 5672 5671
5675 5674 5673 5672 5672 5671 5671 5671 5672 5673 5673 5674 5675 5677 5677 5678 5679 5680 5681 5682 5683 5683 5684 5683 5683 5683 5682 5681 5681 5680 5680 5679 5678 5677 5676 5675 5674 5672 5671 5670 5668 5666 5664 5663
5671 5671 5670 5669 5669 5669 5670 5670 5670 5671 5671 5672 5672 5672 5674 5674 5675 5676 5677 5678 5678 5678 5678 5678 5678 5677 5677 5676 5675 5674 5673 5673 5672 5670 5669 5668 5667 5666 5664 5663 5661 5660 5658 5656
5668 5668 5667 5667 5667 5668 5668 5669 5669 5669 5669 5669 5668 5669 5670 5671 5672 5672 5673 5673 5674 5674 5673 5673 5673 5672 5671 5671 5670 5668 5667 5666 5665 5663 5662 5661 5660 5659 5657 5656 5655 5653 5651 5649